This is the latest recevied weather packets stored in our database for station/object N9PBY-2. If no packets are shown the sender has not sent any weather packets the latest 10 day(s).
| Time | Temp. | Humidity | Pressure | Rain* | Wind** | Luminosity | Snow |
|---|---|---|---|---|---|---|---|
| 1777554007 | 3.33° C | 80% | 1016.6 hPa | 0 mm | - | - | - |
| 1777553408 | 3.33° C | 81% | 1016.6 hPa | 0 mm | - | - | - |
| 1777552807 | 2.78° C | 81% | 1016.6 hPa | 0 mm | - | - | - |
| 1777552207 | 2.22° C | 81% | 1016.6 hPa | 0 mm | - | - | - |
| 1777551607 | 2.22° C | 81% | 1016.6 hPa | 0 mm | - | - | - |
| 1777551007 | 2.22° C | 81% | 1016.5 hPa | 0 mm | - | - | - |
| 1777550407 | 1.67° C | 81% | 1016.3 hPa | 0 mm | - | - | - |
| 1777549807 | 1.67° C | 81% | 1016.5 hPa | 0 mm | - | - | - |
| 1777549207 | 1.11° C | 80% | 1016.4 hPa | 0 mm | - | - | - |
| 1777548607 | 1.11° C | 80% | 1016.3 hPa | 0 mm | - | - | - |
| 1777548007 | 0.56° C | 79% | 1016.2 hPa | 0 mm | - | - | - |
| 1777547407 | 0.56° C | 79% | 1016.1 hPa | 0 mm | - | - | - |
| 1777546807 | 0.56° C | 79% | 1016.2 hPa | 0 mm | - | - | - |
| 1777546207 | 0.56° C | 79% | 1016.1 hPa | 0 mm | - | - | - |
| 1777545607 | 0.56° C | 78% | 1016.1 hPa | 0 mm | - | - | - |
| 1777545007 | 0.56° C | 78% | 1016.1 hPa | 0 mm | - | - | - |
| 1777544407 | 0.56° C | 78% | 1016 hPa | 0 mm | - | - | - |
| 1777543807 | 0.56° C | 78% | 1015.9 hPa | 0 mm | - | - | - |
| 1777543207 | 0.56° C | 77% | 1015.8 hPa | 0 mm | - | - | - |
| 1777542606 | 0.56° C | 77% | 1015.7 hPa | 0 mm | - | - | - |
| 1777542006 | 1.11° C | 77% | 1015.9 hPa | 0 mm | - | - | - |
| 1777541407 | 1.11° C | 77% | 1016 hPa | 0.25 mm | - | - | - |
| 1777540807 | 1.11° C | 77% | 1016 hPa | 0.25 mm | - | - | - |
| 1777540206 | 1.11° C | 77% | 1016 hPa | 0.25 mm | - | - | - |
| 1777539607 | 1.11° C | 77% | 1016.1 hPa | 0.25 mm | - | - | - |
* Rain latest hour (hover to see other rain measurements)
** Current wind speed in m/s (hover to see current wind gust speed)